Regional Weather Roundup
Issued by NWS Kansas City/Pleasant Hill, MO

Home | Current Version | Previous Version | Graphics & Text | Print | Product List | Glossary Off
Versions: 1 2 3 4 5 6 7 8 9 10 11 12 13 14 15 16 17 18 19 20 21 22 23 24 25 26 27 28 29 30 31 32 33 34 35 36 37 38 39 40 41 42 43 44 45 46 47 48 49 50

000
ASUS43 KEAX 270311
RWREAX

WEATHER ROUNDUP FOR EASTERN KANSAS AND NORTHWEST MISSOURI
NATIONAL WEATHER SERVICE KANSAS CITY/PLEASANT HILL MO
900 PM CST WED NOV 26 2014

KSZ040-057-103>105-MOZ028-029-037-043-270400-
...KANSAS CITY METROPOLITAN AREA...

CITY           SKY/WX    TMP DP  RH WIND       PRES   REMARKS
K.C. INTL      CLOUDY    29  22  75 N15G28    30.32R WCI  18
K.C. DOWNTOWN  CLOUDY    32  23  69 NW12G21   30.33R WCI  23
LEES SUMMIT    CLOUDY    31  23  72 NW14      30.30R WCI  21
OLATHE - IXD   CLOUDY    29  22  75 NW18      30.33R WCI  16
OLATHE - OJC   CLOUDY    30  23  75 NW16G25   30.31R WCI  19
LAWRENCE       CLOUDY    30  21  69 NW16G26   30.37R WCI  19

$$

MOZ001>008-011>017-020>025-030>033-038>040-044>046-053-054-270400-
...NORTHERN AND CENTRAL MISSOURI...

CITY           SKY/WX    TMP DP  RH WIND       PRES   REMARKS
ST. JOSEPH     CLOUDY    28  21  75 N20G35    30.36R WCI  15
MOSBY          CLOUDY    32  25  74 NW15G22   30.31R WCI  22
WARRENSBURG    CLOUDY    32  27  80 NW12      30.28R WCI  23
WHITEMAN AFB   CLOUDY    32  26  78 NW18G30   30.26R WCI  20
CLINTON        CLOUDY    34  28  80 NW12G17   30.28R WCI  25
SEDALIA        CLOUDY    33  27  78 NW17G25   30.25R WCI  22
WARSAW         NOT AVBL
MARSHALL       CLOUDY    34  30  86 NW14G22   30.24R WCI  24
CHILLICOTHE      N/A     32  28  85 NW10G16   30.27R WCI  24
KIRKSVILLE     CLOUDY    31  29  92 N16G22    30.22R FOG     WCI  20

$$

MOZ041-047>049-056>058-063>065-088>090-097-270400-
...EASTERN AND SOUTHERN MISSOURI...

CITY           SKY/WX    TMP DP  RH WIND       PRES   REMARKS
ST. LOUIS INTL CLOUDY    34  31  88 CALM      30.09R FOG
SPIRIT OF STL  CLOUDY    35  32  88 W8        30.09R FOG     WCI  29
COLUMBIA       CLOUDY    32  29  88 NW18G28   30.17R WCI  20
JEFFERSON CITY CLOUDY    33  29  85 NW15G23   30.19R WCI  23
MEXICO         LGT SNOW N/A N/A N/A NW14G21   30.14R
ROLLA          CLOUDY    32  29  88 NW15G29   30.14R WCI  22
LEBANON        CLOUDY    34  28  80 NW15G29   30.20R WCI  24
OSAGE BEACH    CLOUDY    34  27  75 W8G20     30.20R WCI  27
SPRINGFIELD    CLOUDY    36  26  67 NW18G31   30.24R WCI  26
BRANSON        CLEAR     36  27  69 NW12G21   30.23R WCI  27
NEVADA         CLOUDY    32  23  69 NW16G24   30.34R WCI  21
JOPLIN         MOCLDY    35  24  64 NW16      30.32R WCI  25
WEST PLAINS    CLOUDY    40  27  59 NW20G29   30.14R WCI  30

$$

IAZ060-094-KSZ022-034>040-054-083-096-NEZ052-066-093-270400-
...KANSAS...SOUTHEAST NEBRASKA AND IOWA...

CITY           SKY/WX    TMP DP  RH WIND       PRES   REMARKS
TOPEKA         CLOUDY    30  21  69 NW15      30.39R WCI  19
MANHATTAN      CLEAR     27  20  75 CALM      30.42R
EMPORIA        CLEAR     29  21  72 NW18G24   30.38R WCI  16
CHANUTE        CLEAR     31  23  72 NW13      30.36R WCI  21
WICHITA        PTCLDY    36  21  54 N15G22    30.39R WCI  27
OMAHA          CLOUDY    24  18  77 N12       30.42R WCI  13
LINCOLN        MOCLDY    22  15  75 N14       30.43R WCI   9
FALLS CITY     CLOUDY    26  20  77 NW15G23   30.38R WCI  14
LAMONI         CLOUDY    27  23  85 N21G26    30.28R WCI  13
DES MOINES     LGT SNOW  25  21  85 NW16      30.31R FOG     WCI  12

$$



USA.gov is the U.S. government's official web portal to all federal, state and local government web resources and services.